Date String (YYYY-MM-DD hh:mm:ss) UTC,Instrument flags,absolute air pressure of the measurement (hPa),sample flow rate (lpm),inlet stack bypass flow (lpm),air temperature of the measurement (°C),ambient temperature measured by the external sensor (°C),aerosol sample conditioner tube jacket temperature (°C),OPC LED temperature (°C),internal box temperature (°C),relative humidity of the measurement (%),span deviation,mass concentration of particles derived from Lorenz-Mie calculation of OPC scattering (μg/m³),mass concentration of particles derived from Lorenz-Mie calculation of OPC scattering (μg/m³),mass concentration of particles derived from Lorenz-Mie calculation of OPC scattering (μg/m³)
DateTimeUTC,F1_M11,P_M11,Q1_M11,Q2_M11,T1_M11,T2_M11,T3_M11,T4_M11,T5_M11,U1_M11,ZSPAN_M11,X0_M11,X2_M11,X1_M11
2023-06-12 06:00:00,SystemResetWarning,0832.4,5.00,000.00,030.3,028.7,000.0,038.9,031.8,28.8,0001.5,0007.61,0003.95,0003.57
2023-06-12 06:01:00,SystemResetWarning,0832.5,5.00,000.00,030.3,028.7,000.0,038.9,031.8,28.9,0002.3,0007.53,0003.91,0003.54
2023-06-12 06:02:00,SystemResetWarning,0832.4,5.00,000.00,030.3,028.7,000.0,038.9,031.8,29.0,0002.4,0007.42,0003.88,0003.53
2023-06-12 06:03:00,SystemResetWarning,0832.4,4.99,000.00,030.3,028.7,000.0,038.9,031.8,29.0,0002.5,0007.36,0003.85,0003.53
2023-06-12 06:04:00,SystemResetWarning,0832.4,4.99,000.00,030.3,028.7,000.0,038.9,031.8,29.2,0002.2,0007.30,0003.84,0003.55
2023-06-12 06:05:00,SystemResetWarning,0832.3,4.99,000.00,030.3,028.7,000.0,038.9,031.7,29.2,0001.8,0007.03,0003.91,0003.62
2023-06-12 06:06:00,SystemResetWarning,0832.3,5.01,000.00,030.3,028.7,000.0,038.9,031.8,29.2,0001.9,0006.23,0004.01,0003.72
2023-06-12 06:07:00,SystemResetWarning,0832.3,5.01,000.00,030.3,028.7,000.0,038.9,031.8,29.1,0001.9,0006.54,0004.09,0003.79
2023-06-12 06:08:00,SystemResetWarning,0832.3,5.00,000.00,030.3,028.7,000.0,038.9,031.8,29.0,0002.0,0006.78,0004.17,0003.88
2023-06-12 06:09:00,SystemResetWarning,0832.3,4.99,000.00,030.3,028.7,000.0,038.9,031.8,29.0,0002.4,0006.99,0004.25,0003.95
2023-06-12 06:10:00,SystemResetWarning,0832.3,5.00,000.00,030.3,028.7,000.0,038.9,031.7,29.0,0002.6,0007.14,0004.31,0004.01
2023-06-12 06:11:00,SystemResetWarning,0832.2,5.00,000.00,030.3,028.7,000.0,038.9,031.7,29.0,0002.5,0007.26,0004.36,0004.06
2023-06-12 06:12:00,SystemResetWarning,0832.2,5.00,000.00,030.3,028.7,000.0,038.9,031.7,29.1,0002.3,0007.41,0004.42,0004.10
2023-06-12 06:13:00,SystemResetWarning,0832.2,4.99,000.00,030.3,028.7,000.0,038.9,031.8,29.2,0002.3,0007.39,0004.45,0004.15
2023-06-12 06:14:00,SystemResetWarning,0832.2,5.00,000.00,030.3,028.7,000.0,038.9,031.7,29.2,0002.7,0007.54,0004.53,0004.22
2023-06-12 06:15:00,SystemResetWarning,0832.2,5.01,000.00,030.3,028.7,000.0,038.9,031.7,29.2,0002.6,0008.70,0004.64,0004.29
2023-06-12 06:16:00,SystemResetWarning,0832.2,5.00,000.00,030.3,028.7,000.0,038.9,031.7,29.2,0002.6,0008.85,0004.72,0004.37
2023-06-12 06:17:00,SystemResetWarning,0832.2,5.01,000.00,030.3,028.7,000.0,038.9,031.8,29.2,0002.8,0009.08,0004.82,0004.47
2023-06-12 06:18:00,SystemResetWarning,0832.2,4.99,000.00,030.4,028.7,000.0,038.9,031.8,29.1,0002.8,0009.24,0004.94,0004.58
2023-06-12 06:19:00,SystemResetWarning,0832.2,4.99,000.00,030.3,028.7,000.0,038.9,031.7,29.1,0002.7,0009.32,0005.07,0004.69
2023-06-12 06:20:00,SystemResetWarning,0832.2,5.00,000.00,030.4,028.7,000.0,038.9,031.7,29.1,0002.6,0009.39,0005.16,0004.80
2023-06-12 06:21:00,SystemResetWarning,0832.2,5.00,000.00,030.4,028.7,000.0,038.9,031.8,29.1,0002.6,0009.45,0005.26,0004.91
2023-06-12 06:22:00,SystemResetWarning,0832.2,5.00,000.00,030.3,028.7,000.0,038.9,031.7,29.1,0002.6,0009.63,0005.39,0005.01
2023-06-12 06:23:00,SystemResetWarning,0832.2,5.00,000.00,030.3,028.7,000.0,038.9,031.8,29.1,0002.5,0009.65,0005.45,0005.09
2023-06-12 06:24:00,SystemResetWarning,0832.2,5.00,000.00,030.4,028.7,000.0,038.9,031.7,29.0,0002.4,0009.75,0005.49,0005.12
2023-06-12 06:25:00,SystemResetWarning,0832.2,5.01,000.00,030.4,028.7,000.0,038.9,031.8,29.0,0002.0,0009.80,0005.51,0005.12
2023-06-12 06:26:00,SystemResetWarning,0832.2,5.00,000.00,030.4,028.7,000.0,038.9,031.7,29.0,0002.0,0008.93,0005.51,0005.13
2023-06-12 06:27:00,SystemResetWarning,0832.2,5.00,000.00,030.4,028.7,000.0,038.9,031.8,29.0,0002.1,0008.76,0005.51,0005.12
2023-06-12 06:28:00,SystemResetWarning,0832.2,5.00,000.00,030.4,028.7,000.0,038.9,031.8,29.0,0001.9,0008.70,0005.49,0005.10
2023-06-12 06:29:00,SystemResetWarning,0832.3,4.99,000.00,030.4,028.7,000.0,038.9,031.7,28.9,0001.6,0008.67,0005.50,0005.10
2023-06-12 06:30:00,SystemResetWarning,0832.3,5.00,000.00,030.4,028.7,000.0,038.9,031.8,28.9,0001.7,0008.65,0005.50,0005.12
2023-06-12 06:31:00,SystemResetWarning,0832.3,5.00,000.00,030.4,028.7,000.0,038.9,031.8,28.9,0001.7,0008.70,0005.52,0005.12
2023-06-12 06:32:00,SystemResetWarning,0832.3,5.00,000.00,030.4,028.7,000.0,038.9,031.8,29.0,0001.5,0008.92,0005.54,0005.13
2023-06-12 06:33:00,SystemResetWarning,0832.3,5.00,000.00,030.4,028.7,000.0,038.9,031.8,29.0,0001.4,0009.01,0005.54,0005.12
2023-06-12 06:34:00,SystemResetWarning,0832.3,5.00,000.00,030.4,028.7,000.0,038.9,031.8,29.0,0001.4,0009.04,0005.54,0005.12
2023-06-12 06:35:00,SystemResetWarning,0832.3,5.00,000.00,030.4,028.7,000.0,038.9,031.8,29.0,0001.6,0009.24,0005.56,0005.12
2023-06-12 06:36:00,SystemResetWarning,0832.3,5.00,000.00,030.4,028.7,000.0,038.9,031.8,29.0,0001.8,0009.34,0005.58,0005.14
2023-06-12 06:37:00,SystemResetWarning,0832.3,5.01,000.00,030.4,028.7,000.0,038.9,031.8,29.0,0001.7,0009.39,0005.60,0005.14
2023-06-12 06:38:00,SystemResetWarning,0832.3,4.99,000.00,030.4,028.8,000.0,038.9,031.8,29.1,0001.5,0009.39,0005.60,0005.15
2023-06-12 06:39:00,SystemResetWarning,0832.3,5.01,000.00,030.4,028.8,000.0,038.9,031.8,29.1,0001.5,0009.41,0005.64,0005.18
2023-06-12 06:40:00,SystemResetWarning,0832.2,5.00,000.00,030.4,028.7,000.0,038.9,031.8,29.1,0002.0,0010.02,0005.67,0005.20
2023-06-12 06:41:00,SystemResetWarning,0832.2,5.00,000.00,030.4,028.7,000.0,038.9,031.8,29.2,0001.9,0010.17,0005.71,0005.20
2023-06-12 06:42:00,SystemResetWarning,0832.2,5.01,000.00,030.4,028.7,000.0,038.9,031.8,29.2,0002.0,0010.22,0005.73,0005.22
2023-06-12 06:43:00,SystemResetWarning,0832.2,5.00,000.00,030.4,028.7,000.0,038.9,031.8,29.2,0002.0,0010.14,0005.74,0005.23
2023-06-12 06:44:00,SystemResetWarning,0832.2,4.98,000.00,030.4,028.7,000.0,038.9,031.8,29.3,0002.1,0010.32,0005.76,0005.25
2023-06-12 06:45:00,SystemResetWarning,0832.2,5.00,000.00,030.4,028.7,000.0,038.9,031.8,29.4,0002.1,0010.30,0005.74,0005.26
2023-06-12 06:46:00,SystemResetWarning,0832.2,5.00,000.00,030.4,028.7,000.0,038.9,031.8,29.4,0002.1,0010.05,0005.69,0005.25
2023-06-12 06:47:00,SystemResetWarning,0832.2,5.00,000.00,030.4,028.7,000.0,038.9,031.8,29.4,0002.2,0009.85,0005.65,0005.23
2023-06-12 06:48:00,SystemResetWarning,0832.2,5.01,000.00,030.4,028.7,000.0,038.9,031.8,29.4,0002.2,0009.90,0005.62,0005.21
2023-06-12 06:49:00,SystemResetWarning,0832.2,5.00,000.00,030.4,028.7,000.0,038.9,031.8,29.4,0002.2,0010.02,0005.64,0005.19
2023-06-12 06:50:00,SystemResetWarning,0832.2,4.99,000.00,030.4,028.7,000.0,038.9,031.8,29.3,0002.1,0010.06,0005.63,0005.18
2023-06-12 06:51:00,SystemResetWarning,0832.1,5.00,000.00,030.4,028.7,000.0,038.9,031.7,29.3,0001.9,0010.00,0005.65,0005.16
2023-06-12 06:52:00,SystemResetWarning,0832.1,5.00,000.00,030.4,028.7,000.0,038.9,031.7,29.3,0002.0,0009.93,0005.62,0005.16
2023-06-12 06:53:00,SystemResetWarning,0832.1,5.00,000.00,030.4,028.7,000.0,038.9,031.8,29.4,0001.7,0009.92,0005.61,0005.14
2023-06-12 06:54:00,SystemResetWarning,0832.1,5.00,000.00,030.4,028.7,000.0,038.9,031.8,29.4,0001.6,0009.91,0005.59,0005.13
2023-06-12 06:55:00,SystemResetWarning,0832.1,5.00,000.00,030.3,028.7,000.0,038.9,031.8,29.4,0001.8,0009.57,0005.56,0005.11
2023-06-12 06:56:00,SystemResetWarning,0832.1,5.00,000.00,030.3,028.7,000.0,038.9,031.7,29.5,0001.6,0009.63,0005.58,0005.09
2023-06-12 06:57:00,SystemResetWarning,0832.1,5.00,000.00,030.3,028.7,000.0,038.9,031.7,29.4,0001.3,0009.72,0005.60,0005.09
2023-06-12 06:58:00,SystemResetWarning,0832.0,5.00,000.00,030.3,028.7,000.0,038.9,031.8,29.4,0001.4,0009.70,0005.59,0005.09
2023-06-12 06:59:00,SystemResetWarning,0832.0,5.00,000.00,030.4,028.7,000.0,038.9,031.8,29.4,0001.2,0009.58,0005.58,0005.07
